Location: Central Falls
(41.8900°N, 71.3929°W)
Time: 12:15:16
(UTC+00:00)

A-11 Canister half - Pass Details

Date: 06 December 2023
Orbit: 1512 x 1687 km, 47.2° (Epoch: 20 February)

Event Time Altitude Azimuth Distance (km) Brightness Sun altitude
Rises 03:18:51 0° 208° (SSW) 4,678 - -64.7°
Reaches altitude 10° 03:22:04 10° 202° (SSW) 3,716 - -65.1°
Maximum altitude 03:30:40 42° 135° (SE) 2,139 - -66.2°
Drops below altitude 10° 03:39:34 10° 70° (ENE) 3,855 - -67.2°
Sets 03:42:57 0° 63° (ENE) 4,868 - -67.6°
